Theta_e
304 304 304 306 308 313 314 316 318 318 316 317 320 321 323 325 325 326 325 325 325 325 325 327 328 328 330 332 331 330 331 331
302 303 304 305 308 311 311 313 315 316 315 317 318 319 320 322 323 323 323 323 323 324 325 325 326 328 327 328 329 329 330 329
301 302 303 304 306 308 307 308 311 313 313 315 318 321 321 320 320 321 322 323 324 324 325 326 327 328 326 329 330 330 330 329
300 301 303 303 304 306 306 306 306 308 309 312 313 315 317 319 319 320 322 323 325 325 325 326 326 322 309 311 317 323 323 325
300 301 302 304 304 306 305 306 307 306 306 307 308 312 313 315 317 318 321 323 325 325 324 322 322 322 307 306 307 320 321 323
300 301 303 304 305 305 307 307 306 306 306 306 307 308 310 314 315 317 320 322 322 320 320 320 320 319 305 303 304 319 319 320
302 303 306 306 305 305 305 305 305 305 304 306 307 307 308 310 313 317 319 319 319 318 318 318 318 318 302 300 306 316 315 317
301 301 302 302 303 305 306 304 304 304 305 305 307 308 308 309 312 313 317 317 317 315 316 317 312 317 302 299 306 313 314 315
300 298 297 299 301 301 300 301 303 304 305 305 306 307 308 310 313 314 315 314 314 315 314 316 317 315 315 298 298 314 313 314
297 295 294 296 298 297 296 297 301 302 304 304 305 307 307 306 311 312 312 313 312 313 313 313 313 316 303 300 298 298 307 316
294 292 292 293 294 295 294 296 298 300 302 304 304 306 305 306 307 308 307 311 309 309 308 309 310 312 315 298 297 296 297 306
291 291 290 291 293 293 293 295 297 297 299 302 303 303 304 305 305 306 307 308 308 308 308 308 309 311 312 313 314 314 301 304
291 291 292 293 295 296 295 295 295 296 297 298 301 301 301 303 305 307 307 312 309 308 309 309 309 309 310 306 307 313 315 313
292 293 294 296 297 296 297 297 295 295 295 297 298 299 299 300 303 305 297 299 298 297 299 306 310 302 299 298 298 296 295 297
293 294 296 298 296 296 298 298 296 295 295 297 298 297 299 300 303 303 303 301 295 295 295 297 297 300 296 294 294 293 293 295
294 295 297 298 297 295 296 296 296 295 296 295 298 298 299 301 303 304 305 305 304 306 296 297 293 293 292 293 293 294 310 301
293 294 295 295 298 297 298 298 297 297 297 299 301 300 301 302 305 305 305 306 306 307 309 297 298 294 293 291 291 306 315 317
290 291 293 292 295 299 300 299 297 298 300 296 298 303 304 304 305 305 306 307 307 308 308 309 311 300 302 303 302 307 312 317
290 292 291 291 293 295 301 302 299 300 302 302 298 304 305 305 306 306 308 307 308 307 308 309 297 307 311 311 313 313 314 316
290 290 289 290 292 297 301 304 305 305 305 305 305 305 306 305 307 308 308 306 305 308 309 307 290 306 312 312 313 315 315 317
Wind_Speed
12 13 14 14 15 11 9 1 6 7 6 7 8 8 10 12 12 11 11 10 9 9 9 9 8 7 7 6 5 4 3 3
16 14 12 12 12 11 8 8 7 5 9 10 10 10 10 10 10 11 10 10 9 10 11 10 9 8 7 6 5 4 4 4
20 17 13 12 11 6 8 7 7 7 5 6 10 10 10 10 10 12 11 11 10 11 11 10 9 7 6 6 5 4 4 5
22 20 17 13 12 10 9 9 8 9 8 6 4 6 9 10 12 12 12 13 12 12 12 12 11 7 10 7 4 3 4 5
20 20 18 16 13 11 11 11 11 10 9 9 7 5 7 9 11 13 13 14 13 12 11 10 9 7 9 7 6 3 4 7
22 20 20 20 20 18 16 15 15 15 15 12 10 9 7 7 10 12 13 12 13 12 10 9 8 7 9 8 6 5 5 8
24 22 22 21 22 22 21 20 18 17 18 16 13 12 11 9 10 11 11 11 11 11 11 11 10 9 10 10 7 5 6 10
19 21 20 21 22 22 22 23 22 23 20 18 17 15 15 13 13 12 10 10 10 9 10 10 10 10 11 11 7 5 8 8
22 22 23 25 21 20 23 23 25 22 21 20 19 18 17 15 12 12 11 12 11 12 12 11 11 11 10 11 10 7 7 8
22 20 22 22 21 19 24 25 22 22 23 22 21 18 16 13 15 13 14 13 13 13 13 12 10 9 10 12 12 11 8 10
19 18 20 20 19 19 23 23 19 23 22 22 21 20 19 17 16 15 14 13 13 13 13 13 11 9 8 13 10 11 11 8
19 18 18 19 18 20 21 22 19 20 21 19 16 16 17 17 14 14 13 13 13 14 13 13 10 9 8 8 8 9 11 9
17 17 16 19 18 19 20 20 19 17 17 16 16 13 14 13 14 13 14 14 13 13 13 11 11 11 10 10 10 9 9 10
18 18 18 17 12 15 17 18 18 15 14 12 12 12 12 12 12 12 6 8 13 10 9 11 11 9 6 11 13 12 13 6
17 17 18 14 12 13 12 9 13 13 11 10 7 8 7 10 12 13 14 6 3 12 13 14 13 10 15 9 7 7 7 7
16 16 13 15 10 11 7 7 9 10 9 11 10 10 12 9 9 9 7 8 10 10 8 11 10 10 7 7 8 5 6 6
16 14 14 14 13 8 6 5 7 8 8 4 10 7 8 7 7 8 7 8 11 10 10 7 11 11 9 10 10 8 12 11
18 15 15 15 13 13 5 5 8 5 9 11 7 7 8 8 8 8 8 9 7 7 7 9 9 7 7 8 9 11 11 11
16 13 14 14 14 13 7 5 9 4 6 8 5 4 6 6 6 6 6 7 7 7 8 8 8 9 11 12 12 11 12 12
17 17 21 20 19 11 4 3 6 6 7 8 6 6 6 8 8 8 8 7 7 9 7 5 7 8 8 8 10 11 10 10
Wind_Direction
328 338 342 345 344 342 349 174 202 186 179 196 196 195 192 185 174 171 175 176 187 186 186 188 191 188 185 189 197 187 200 239
326 332 331 332 338 337 333 337 330 203 201 209 203 201 200 201 182 176 179 184 197 200 198 195 193 189 193 196 201 216 230 258
319 321 325 325 320 332 345 8 354 341 279 219 214 213 206 200 208 189 185 188 194 202 196 192 185 184 190 186 195 215 241 264
310 309 313 318 307 299 312 316 343 328 341 344 279 242 226 211 205 206 187 183 181 182 193 181 174 186 144 170 192 224 268 279
299 298 297 301 296 286 286 297 301 288 299 302 302 292 232 218 212 204 197 184 173 184 187 184 183 185 171 183 186 263 286 291
298 295 290 290 290 279 275 269 275 279 278 273 277 275 260 220 204 196 190 188 176 178 186 189 196 208 194 206 194 255 270 280
290 288 282 282 278 279 276 274 269 259 252 253 247 243 240 227 223 200 193 188 186 183 189 197 208 226 205 214 217 265 290 278
281 290 278 277 276 276 268 263 260 255 249 245 243 241 238 226 221 221 206 201 204 202 212 218 215 227 195 206 214 273 274 275
284 277 275 273 270 272 263 261 253 249 248 241 237 236 236 233 225 213 212 207 222 219 224 229 227 219 222 197 198 243 260 267
279 277 275 272 269 261 256 252 253 253 252 239 236 229 227 226 226 222 220 216 215 223 228 232 228 225 215 192 203 216 242 256
288 279 272 267 263 256 258 254 246 245 239 235 235 232 223 222 229 224 226 218 220 220 227 230 227 220 222 204 214 223 222 241
293 286 276 269 258 252 246 252 244 233 236 231 223 218 216 220 220 220 219 217 215 225 226 226 224 226 233 242 232 230 224 219
295 290 283 277 270 256 241 232 231 230 224 223 217 205 205 212 221 220 215 216 215 219 216 216 218 228 229 229 247 247 243 230
305 304 303 303 307 294 269 223 210 208 213 208 212 216 207 202 208 214 215 230 170 206 197 209 224 244 212 203 225 241 251 236
316 318 314 325 332 337 354 152 175 187 199 196 196 203 198 201 206 211 214 178 170 195 198 194 212 236 212 211 206 222 213 163
327 322 335 333 0 8 34 116 157 175 171 189 188 192 196 191 171 174 183 184 192 203 205 216 211 222 182 148 160 151 213 213
337 337 353 349 353 29 51 94 138 153 163 151 160 176 191 185 181 182 185 203 219 220 212 180 209 219 205 185 167 227 239 230
349 347 353 349 352 358 61 104 130 172 151 168 191 165 163 170 172 178 190 200 201 205 196 206 184 178 202 207 209 219 226 238
344 340 352 348 346 337 326 94 163 167 142 169 181 163 171 175 174 180 183 182 188 195 209 209 199 199 212 215 213 214 224 231
357 4 5 355 345 331 264 147 147 137 159 167 168 157 169 187 198 193 195 194 207 212 216 199 170 209 231 222 227 224 224 224